[[{"header":{"parameterUnit":"m.s-1","parameterCategory":1,"la1":30.2991,"la2":30.254,"lo1":-89.0895,"lo2":-89.0444,"dy":0.0017,"dx":0.0017,"nx":28,"ny":28,"refTime":"2024-08-05T21:00:00:Z","depth":0,"parameterNumber":2,"parameterNumberName":"U-component_of_WINDS"},"data":[0,0,0,0,0,0,0,0,0,0,0,0,0,0,0,0,0,0,0,0,0,0,0,0,0,0,0,0,0,0,0,0,0,0,0,0,0,0,0,0,0,0,0,0,0,0,0,0,0,0,0,0,0,0,0,0,0,0,0.3039,0.3041,0,0.3157,0.3158,0.3159,0.3194,0.3194,0.3193,0.3192,0.3316,0.332,0.3324,0,0,0,0,0,0,0,0,0,0,0,0,0,0.285,0.2853,0.3039,0.3041,0.3042,0.3156,0.3158,0.316,0.3194,0.3194,0.3193,0.3192,0.3315,0.3319,0.3324,0,0,0,0,0,0,0,0,0,0,0,0,0,0.2946,0.2854,0.3039,0.3073,0.3077,0.3156,0.3158,0.316,0.3194,0.3194,0.3193,0.3192,0.3313,0.3319,0.3325,0.3379,0,0,0.3342,0.3345,0,0,0,0,0,0,0,0,0.294,0.2953,0.3067,0.3071,0.3076,0.316,0.3137,0.3234,0.3195,0.315,0.3192,0.3191,0.3265,0.3275,0.3299,0.3385,0.339,0.3343,0.3347,0.3349,0.3351,0,0,0,0,0,0,0,0.2934,0.2948,0.3086,0.3068,0.3074,0.3084,0.3097,0.3155,0.3212,0.3154,0.3157,0.317,0.3267,0.3293,0.3302,0.3392,0.3343,0.3348,0.3352,0.3354,0.353,0.3531,0,0,0,0,0,0,0.2921,0.2942,0.3082,0.3089,0.3004,0.3088,0.3102,0.3134,0.3211,0.3222,0.3171,0.3171,0.3284,0.3295,0.3307,0.3376,0.3349,0.3354,0.3358,0.3529,0.353,0.3532,0,0,0,0,0,0,0.2916,0.2933,0.3077,0.3017,0.3036,0.3092,0.3127,0.3137,0.3162,0.3223,0.3234,0.3186,0.3284,0.3298,0.3361,0.3381,0.3357,0.3362,0.3527,0.3529,0.3531,0.3515,0,0,0,0,0,0,0.2911,0.2931,0.2951,0.3017,0.3039,0.3128,0.3129,0.314,0.3172,0.3174,0.3241,0.3251,0.3284,0.3352,0.3367,0.3389,0.3367,0.3526,0.3528,0.353,0.3514,0.3516,0.3518,0,0,0,0,0,0.2904,0.2943,0.2952,0.2969,0.3065,0.3129,0.3142,0.3178,0.3173,0.3195,0.3234,0.3249,0.3376,0.3358,0.3375,0.3399,0.3525,0.3528,0.353,0.3513,0.3516,0.3518,0,0,0,0,0,0,0.2879,0.2952,0.2963,0.3024,0.307,0.3135,0.3163,0.3179,0.3228,0.3228,0.3272,0.3287,0.3346,0.3379,0.3357,0.3456,0.3451,0.3457,0.3433,0.3436,0.3437,0.3429,0.3372,0,0,0,0,0,0.288,0.2925,0.2987,0.3035,0.3057,0.3106,0.3135,0.3159,0.3209,0.3229,0.3273,0.3322,0.3373,0.3406,0.3457,0.3519,0.3535,0.3544,0.3546,0.3547,0.3552,0.3589,0.3594,0.354,0.354,0.354,0,0,0.2884,0.2929,0.2955,0.3031,0.3069,0.3116,0.3122,0.3171,0.3207,0.3237,0.3298,0.3332,0.339,0.3453,0.3483,0.3482,0.357,0.355,0.3551,0.3556,0.3592,0.3597,0.3602,0.3542,0.3542,0.3542,0,0,0.2915,0.2953,0.2998,0.3036,0.3094,0.3126,0.3137,0.32,0.3223,0.3285,0.3309,0.3353,0.344,0.348,0.3512,0.3559,0.3575,0.3574,0.3585,0.362,0.3624,0.3628,0.3646,0.3652,0.3579,0.3579,0.3579,0,0.2913,0.2983,0.3019,0.3067,0.31,0.3128,0.3174,0.321,0.3282,0.3305,0.3303,0.3413,0.3454,0.3527,0.3539,0.3563,0.3578,0.3567,0.362,0.3625,0.3629,0.3647,0.3653,0.3579,0.3579,0.3579,0.3579,0,0.2978,0.3026,0.3056,0.3123,0.316,0.3206,0.3251,0.3284,0.3304,0.3337,0.3401,0.3451,0.3512,0.3532,0.3552,0.3608,0.3606,0.3612,0.3608,0.3633,0.365,0.3657,0.3578,0.3578,0.3578,0.3579,0,0,0.2997,0.3083,0.3093,0.3125,0.3191,0.323,0.3279,0.3338,0.3366,0.3415,0.3458,0.3531,0.3537,0.3573,0.3599,0.3629,0.3665,0.3632,0.3634,0.3637,0.3731,0.3727,0.3734,0.3676,0.3677,0.3678,0.3727,0,0.3036,0.3123,0.3157,0.3229,0.3275,0.3302,0.3345,0.3391,0.3424,0.3469,0.3505,0.3556,0.3559,0.3582,0.3613,0.3654,0.3685,0.3651,0.3718,0.372,0.3703,0.3743,0.3739,0.3782,0.3733,0.3735,0.3735,0,0.3094,0.3143,0.3218,0.328,0.33,0.3338,0.3395,0.3437,0.3491,0.3513,0.3553,0.3577,0.3631,0.3623,0.3699,0.3675,0.3705,0.3729,0.3731,0.374,0.3729,0.3753,0.3797,0.3803,0.3746,0.3745,0.3745,0,0.3101,0.3186,0.3242,0.3268,0.3341,0.3367,0.3398,0.3451,0.3484,0.3535,0.3558,0.3614,0.3646,0.369,0.3729,0.3719,0.3802,0.3797,0.3822,0.3821,0.3839,0.3837,0.3888,0.3856,0.3856,0.3856,0.3856,0,0.3143,0.3188,0.3246,0.3281,0.3333,0.3372,0.3424,0.3457,0.3504,0.3547,0.3575,0.3615,0.3664,0.3711,0.3742,0.3801,0.3815,0.3835,0.3843,0.3833,0.383,0.3853,0.3852,0.3858,0.3858,0.3857,0.3857,0,0.316,0.32,0.3263,0.3327,0.3344,0.338,0.3435,0.3471,0.3504,0.3558,0.3574,0.3627,0.3684,0.3727,0.3801,0.3822,0.3885,0.3893,0.3866,0.387,0.3894,0.3892,0.3962,0.3974,0.3933,0.3933,0.3934,0,0.3184,0.3219,0.3286,0.3316,0.3348,0.3396,0.343,0.3471,0.3506,0.357,0.3598,0.3656,0.3705,0.3795,0.3841,0.3898,0.3909,0.393,0.3918,0.3907,0.391,0.3908,0.3912,0.3931,0.3931,0.3932,0.3932,0,0.3223,0.3241,0.3288,0.3343,0.3383,0.3428,0.3475,0.3498,0.3547,0.3586,0.3643,0.3681,0.3756,0.3815,0.3876,0.3911,0.393,0.3935,0.3944,0.3935,0.3918,0.3929,0.3871,0.3933,0.3933,0.3933,0.3933,0.3933,0.3245,0.3278,0.333,0.3383,0.3421,0.3464,0.3501,0.3539,0.3587,0.3651,0.3672,0.3732,0.3786,0.3871,0.3906,0.3955,0.3955,0.3968,0.3972,0.3975,0.3974,0.391,0.3966,0.3966,0.3966,0.3966,0.3966,0,0.3286,0.3321,0.3368,0.3432,0.3473,0.3486,0.3538,0.3573,0.3625,0.3673,0.372,0.3787,0.3844,0.3895,0.3954,0.3983,0.3994,0.3998,0.3997,0.4004,0.397,0.3956,0.3988,0.3988,0.3988,0.3988,0.3988,0.3988,0.3312,0.3369,0.3393,0.3471,0.3506,0.3564,0.3593,0.3633,0.3671,0.3744,0.3791,0.3823,0.3873,0.3937,0.399,0.4004,0.4025,0.4027,0.4043,0.401,0.4007,0.4004,0.3992,0.4031,0.4031,0.4074,0.4074,0.4074]},{"header":{"parameterUnit":"m.s-1","parameterCategory":1,"la1":30.2991,"la2":30.254,"lo1":-89.0895,"lo2":-89.0444,"dy":0.0017,"dx":0.0017,"nx":28,"ny":28,"refTime":"2024-08-05T21:00:00:Z","depth":0,"parameterNumber":3,"parameterNumberName":"V-component_of_WINDS"},"data":[0,0,0,0,0,0,0,0,0,0,0,0,0,0,0,0,0,0,0,0,0,0,0,0,0,0,0,0,0,0,0,0,0,0,0,0,0,0,0,0,0,0,0,0,0,0,0,0,0,0,0,0,0,0,0,0,0,0,-2.1604,-2.1605,0,-2.1683,-2.1684,-2.1685,-2.1776,-2.1777,-2.1779,-2.178,-2.1858,-2.1859,-2.186,0,0,0,0,0,0,0,0,0,0,0,0,0,-2.153,-2.1531,-2.1604,-2.1605,-2.1606,-2.1683,-2.1684,-2.1685,-2.1776,-2.1777,-2.1779,-2.1781,-2.1858,-2.1859,-2.186,0,0,0,0,0,0,0,0,0,0,0,0,0,-2.1581,-2.1531,-2.1603,-2.166,-2.1666,-2.1683,-2.1684,-2.1686,-2.1775,-2.1777,-2.1779,-2.1781,-2.1858,-2.1859,-2.186,-2.1827,0,0,-2.1864,-2.1864,0,0,0,0,0,0,0,0,-2.1578,-2.1584,-2.1651,-2.1656,-2.1663,-2.1722,-2.1687,-2.1733,-2.1775,-2.1734,-2.178,-2.1782,-2.1811,-2.1816,-2.1827,-2.183,-2.1834,-2.1864,-2.1865,-2.1865,-2.1866,0,0,0,0,0,0,0,-2.1574,-2.1581,-2.1635,-2.1652,-2.1659,-2.1682,-2.1691,-2.1696,-2.176,-2.1737,-2.1744,-2.1753,-2.1815,-2.1825,-2.1829,-2.1835,-2.1864,-2.1865,-2.1866,-2.1866,-2.1821,-2.1819,0,0,0,0,0,0,-2.1562,-2.1577,-2.1633,-2.1638,-2.1625,-2.1681,-2.1692,-2.1701,-2.176,-2.1771,-2.1751,-2.1757,-2.1822,-2.1828,-2.1832,-2.1801,-2.1865,-2.1866,-2.1867,-2.1823,-2.1821,-2.1819,0,0,0,0,0,0,-2.156,-2.1566,-2.1629,-2.1609,-2.1619,-2.1681,-2.169,-2.1701,-2.1712,-2.177,-2.1782,-2.175,-2.1824,-2.183,-2.1829,-2.1805,-2.1867,-2.1868,-2.1825,-2.1822,-2.182,-2.1736,0,0,0,0,0,0,-2.1558,-2.1565,-2.1553,-2.1608,-2.162,-2.1624,-2.1688,-2.1701,-2.1714,-2.1723,-2.1772,-2.1783,-2.1826,-2.1827,-2.183,-2.1808,-2.1869,-2.1828,-2.1824,-2.1821,-2.1741,-2.173,-2.1721,0,0,0,0,0,-2.1555,-2.1524,-2.1552,-2.1558,-2.1606,-2.1623,-2.1629,-2.1681,-2.1712,-2.1701,-2.1739,-2.1781,-2.1807,-2.1826,-2.183,-2.1808,-2.183,-2.1825,-2.1821,-2.1745,-2.1733,-2.1722,0,0,0,0,0,0,-2.1462,-2.1532,-2.1564,-2.155,-2.158,-2.1638,-2.1625,-2.1665,-2.1685,-2.1692,-2.1754,-2.1765,-2.1757,-2.1782,-2.1802,-2.1782,-2.1825,-2.1821,-2.1766,-2.1754,-2.1744,-2.1739,-2.187,0,0,0,0,0,-2.144,-2.1449,-2.1509,-2.1491,-2.1505,-2.1562,-2.1572,-2.1609,-2.1642,-2.1655,-2.1693,-2.1723,-2.1739,-2.1747,-2.1764,-2.1745,-2.1759,-2.1732,-2.1722,-2.1714,-2.1711,-2.1707,-2.1697,-2.1804,-2.1804,-2.1804,0,0,-2.1394,-2.1434,-2.1435,-2.1474,-2.1502,-2.151,-2.1572,-2.1577,-2.1584,-2.1655,-2.1658,-2.1687,-2.1725,-2.1715,-2.1713,-2.1736,-2.1684,-2.1708,-2.1701,-2.1703,-2.1701,-2.1691,-2.1682,-2.1801,-2.1802,-2.1802,0,0,-2.1316,-2.1346,-2.1337,-2.1364,-2.1406,-2.1445,-2.1443,-2.1496,-2.1519,-2.1523,-2.1578,-2.1587,-2.1611,-2.1638,-2.1654,-2.1591,-2.1632,-2.1594,-2.1543,-2.1539,-2.153,-2.1523,-2.1504,-2.1496,-2.159,-2.159,-2.159,0,-2.1254,-2.1269,-2.1326,-2.133,-2.1346,-2.1414,-2.1406,-2.1429,-2.1474,-2.1484,-2.151,-2.1545,-2.1575,-2.1575,-2.156,-2.157,-2.1571,-2.1589,-2.1527,-2.152,-2.1515,-2.1497,-2.1489,-2.1585,-2.1586,-2.1586,-2.1587,0,-2.1193,-2.1202,-2.119,-2.1235,-2.125,-2.1247,-2.1305,-2.1313,-2.135,-2.1387,-2.1392,-2.1431,-2.1459,-2.1461,-2.1496,-2.1468,-2.1481,-2.1515,-2.156,-2.1499,-2.1484,-2.1477,-2.1579,-2.1581,-2.1582,-2.1583,0,0,-2.1057,-2.1136,-2.1131,-2.1155,-2.1208,-2.1217,-2.1218,-2.1248,-2.1256,-2.1285,-2.129,-2.1311,-2.1345,-2.1363,-2.1402,-2.1397,-2.135,-2.1433,-2.1435,-2.1419,-2.1326,-2.1301,-2.1292,-2.1377,-2.1376,-2.1375,-2.1324,0,-2.0991,-2.0999,-2.1052,-2.1045,-2.1058,-2.1123,-2.1125,-2.1159,-2.1194,-2.1209,-2.1247,-2.1263,-2.1304,-2.1317,-2.1316,-2.1356,-2.1332,-2.136,-2.1384,-2.1384,-2.1375,-2.1284,-2.1257,-2.1207,-2.1318,-2.1317,-2.1316,0,-2.0914,-2.0943,-2.0937,-2.0996,-2.1003,-2.1003,-2.1037,-2.105,-2.1091,-2.1117,-2.114,-2.1185,-2.1192,-2.1233,-2.1245,-2.1263,-2.1276,-2.1297,-2.1297,-2.1303,-2.1348,-2.129,-2.1191,-2.1185,-2.1306,-2.1307,-2.1308,0,-2.082,-2.0856,-2.086,-2.0877,-2.0943,-2.0943,-2.0971,-2.1013,-2.1029,-2.1059,-2.107,-2.1099,-2.1115,-2.1137,-2.1189,-2.1214,-2.1197,-2.1241,-2.122,-2.1219,-2.1215,-2.1215,-2.112,-2.1218,-2.1219,-2.1219,-2.1219,0,-2.0742,-2.0737,-2.082,-2.0821,-2.0819,-2.0881,-2.0877,-2.091,-2.0949,-2.0959,-2.1017,-2.1025,-2.1093,-2.1109,-2.115,-2.1156,-2.1162,-2.1185,-2.1196,-2.1181,-2.1179,-2.1192,-2.1198,-2.1217,-2.1217,-2.1218,-2.1218,0,-2.0637,-2.0691,-2.07,-2.0764,-2.078,-2.0776,-2.083,-2.0836,-2.0875,-2.0888,-2.0895,-2.0957,-2.098,-2.1034,-2.1071,-2.1098,-2.1096,-2.1114,-2.1082,-2.109,-2.1068,-2.107,-2.098,-2.0972,-2.1072,-2.1071,-2.107,0,-2.0585,-2.0584,-2.0649,-2.0661,-2.0687,-2.0705,-2.0723,-2.0784,-2.08,-2.0849,-2.0849,-2.0877,-2.0904,-2.0938,-2.0986,-2.1016,-2.1037,-2.1004,-2.1042,-2.1029,-2.1041,-2.1042,-2.1044,-2.0996,-2.0994,-2.0993,-2.0992,0,-2.0488,-2.0516,-2.054,-2.0575,-2.0595,-2.0625,-2.0657,-2.0664,-2.0733,-2.0749,-2.0775,-2.0795,-2.0835,-2.0863,-2.0901,-2.093,-2.0973,-2.098,-2.0977,-2.0963,-2.0947,-2.0959,-2.1063,-2.0982,-2.0983,-2.0984,-2.0984,-2.0985,-2.0411,-2.0414,-2.0462,-2.0488,-2.052,-2.055,-2.056,-2.0602,-2.0625,-2.0664,-2.0698,-2.0721,-2.0766,-2.0821,-2.0848,-2.0868,-2.0889,-2.0884,-2.0884,-2.0882,-2.0877,-2.0941,-2.0874,-2.0874,-2.0875,-2.0875,-2.0875,0,-2.032,-2.0355,-2.0378,-2.0424,-2.0445,-2.0485,-2.0525,-2.054,-2.056,-2.0598,-2.0624,-2.0656,-2.0685,-2.0736,-2.077,-2.0776,-2.0798,-2.0783,-2.0785,-2.0792,-2.0854,-2.0855,-2.0766,-2.0766,-2.0766,-2.0766,-2.0766,-2.0766,-2.0276,-2.0286,-2.032,-2.0347,-2.0382,-2.0407,-2.0426,-2.0455,-2.0487,-2.052,-2.0545,-2.0579,-2.0624,-2.0662,-2.0691,-2.0706,-2.0717,-2.0697,-2.0718,-2.0776,-2.0787,-2.0796,-2.0798,-2.0698,-2.0698,-2.0655,-2.0655,-2.0654]}]]